Wind_Speed
22 22 23 23 23 21 21 19 17 16 16 16 15 14 13 14 15 16 17 18 18 19 21 22 21 20 20 19 18 18 17 15 14 14 14 14 15 16 17 17 17 17 18
24 24 25 25 26 25 23 22 21 20 19 19 20 19 18 17 17 18 19 20 20 21 22 23 24 23 23 22 21 20 20 19 18 17 16 16 16 16 17 18 18 19 19
29 29 28 28 27 26 26 25 24 23 23 23 23 24 23 22 22 21 21 21 21 22 23 24 25 26 26 26 25 24 23 23 22 22 20 19 18 18 18 19 20 20 20
35 35 33 32 31 29 28 28 28 27 27 27 27 27 27 26 26 25 24 23 23 24 24 26 26 26 28 28 28 27 26 25 24 25 25 24 22 20 20 20 22 22 21
41 41 40 38 37 34 32 31 30 30 30 30 31 31 30 30 29 29 28 27 27 27 27 27 27 27 27 29 29 29 27 27 27 27 28 28 26 24 22 22 23 23 22
46 46 46 45 43 40 38 35 34 34 33 34 34 34 33 32 31 31 31 31 31 30 30 30 30 30 29 29 30 30 30 29 29 29 30 30 29 27 25 23 23 23 23
50 50 50 50 49 47 44 41 39 38 37 37 37 36 34 33 32 32 32 32 32 32 32 32 32 33 32 32 32 32 33 32 32 33 33 33 32 30 27 24 23 23 23
54 54 54 54 54 52 50 47 44 43 41 40 39 38 34 33 34 33 33 33 33 33 33 33 33 34 35 35 34 35 35 35 34 35 36 36 35 33 30 27 25 24 23
56 57 57 56 57 57 53 49 47 45 42 41 40 39 36 34 34 33 34 34 33 33 33 33 33 35 37 38 38 37 37 37 36 36 36 37 38 36 33 30 27 25 24
56 56 56 55 55 55 53 50 48 45 42 40 39 38 38 36 35 32 32 33 33 32 32 33 34 36 38 39 39 39 38 37 36 35 35 36 37 37 35 33 30 27 26
52 51 49 50 51 51 50 46 43 41 40 39 37 36 36 35 33 31 29 30 32 32 32 33 34 36 38 39 39 39 38 39 39 37 36 35 36 38 37 34 32 31 29
46 43 42 41 43 45 43 38 36 36 36 35 34 34 34 34 31 29 27 28 29 31 32 34 34 36 37 38 40 41 42 42 41 41 38 36 37 39 39 37 35 34 32
44 39 38 37 36 36 35 32 31 32 32 33 33 33 33 32 30 29 27 27 28 30 32 34 34 35 36 38 40 42 44 44 42 41 40 38 38 40 41 40 38 37 36
41 37 37 37 35 33 29 28 28 30 31 32 33 32 31 30 29 29 28 28 28 30 31 33 35 35 36 38 41 42 43 42 40 39 38 39 40 40 40 41 40 39 38
36 34 34 34 34 31 27 26 28 29 30 31 30 30 29 28 28 28 28 29 28 28 30 31 34 36 37 38 39 41 42 41 39 38 38 39 40 40 40 40 39 39 37
32 32 33 34 32 28 26 27 29 30 30 28 28 27 27 27 27 28 29 29 29 29 29 31 32 34 36 37 38 38 40 41 40 39 38 38 39 40 40 40 38 37 36
31 31 31 30 27 26 26 27 28 28 27 27 27 28 29 28 28 29 30 31 30 30 30 31 31 31 32 34 36 37 38 38 38 38 38 38 39 40 40 39 37 36 36
31 30 28 26 25 26 26 25 25 25 26 27 28 29 30 30 30 30 31 33 33 33 33 33 32 31 30 30 31 33 35 37 38 39 39 39 40 40 40 39 37 36 36
30 28 25 23 23 23 23 23 24 25 26 28 29 30 31 31 32 32 34 35 35 36 36 36 35 33 31 29 27 27 29 31 31 33 34 35 35 35 35 35 35 35 34
29 26 23 21 21 22 22 23 24 25 27 29 30 31 32 32 33 34 34 35 36 37 38 38 37 35 34 32 29 26 24 24 24 26 27 28 28 27 28 29 30 31 32
24 22 21 20 21 21 22 23 25 26 27 28 29 30 31 32 33 34 34 35 36 37 37 38 37 36 35 34 32 29 26 23 20 21 21 22 22 22 23 25 26 27 28
17 18 20 21 21 22 23 24 24 25 26 28 29 30 31 33 33 34 33 33 34 34 34 35 35 35 35 34 34 32 30 27 23 21 19 20 22 21 20 21 22 24 26
17 19 21 22 23 23 23 24 24 25 26 27 28 29 30 31 32 32 32 32 32 33 33 33 33 33 33 34 35 35 33 31 29 27 22 21 20 20 20 21 22 23 25
19 21 22 22 23 22 22 22 22 23 23 24 26 27 27 28 29 29 30 30 30 31 32 33 33 34 35 35 35 35 35 34 32 31 28 26 24 23 22 23 24 25 25
19 19 20 20 20 20 19 19 19 20 20 21 22 23 24 25 26 27 27 28 29 30 32 33 34 35 36 36 36 35 35 35 35 34 33 31 28 25 24 23 25 26 27
17 16 16 15 15 15 15 15 15 16 17 18 19 20 22 23 24 24 26 27 28 29 31 32 33 34 35 36 36 36 36 35 36 35 36 35 34 32 30 29 28 27 28
Wind_Direction
290 289 288 281 274 268 262 258 261 272 282 290 298 309 319 321 316 312 306 300 289 277 271 268 270 273 273 270 269 269 273 277 278 276 275 277 278 278 275 272 270 273 276
284 283 283 282 277 271 266 261 262 270 277 285 293 301 308 313 312 307 302 299 296 289 281 275 271 268 270 271 269 268 270 272 273 272 272 272 273 274 273 272 272 273 275
280 280 279 277 274 271 266 263 263 267 273 280 287 294 300 304 306 303 297 293 292 291 287 283 277 270 267 268 270 271 270 271 272 271 270 271 271 271 270 272 273 275 275
275 275 275 274 270 268 266 264 264 267 272 279 285 290 293 296 299 298 293 287 285 284 285 284 282 274 267 265 267 270 272 271 273 273 271 269 269 270 269 270 272 273 275
271 271 271 270 269 266 265 264 265 268 273 279 284 287 289 291 293 292 289 284 281 279 279 280 280 277 268 264 264 268 271 272 273 274 272 269 267 267 268 268 269 270 273
271 269 268 268 267 266 266 266 267 269 273 277 281 285 287 289 290 289 286 283 281 278 277 275 274 274 270 264 261 262 266 271 273 275 274 269 265 263 265 266 266 266 269
271 269 266 264 264 264 264 266 265 269 271 275 278 282 285 287 287 287 285 284 281 279 276 272 269 268 269 266 261 259 262 267 273 275 274 270 263 260 260 261 262 262 265
272 269 264 261 260 261 263 263 264 267 269 272 276 280 283 285 286 285 285 284 283 280 278 274 268 266 265 265 263 261 261 264 269 274 272 269 263 258 257 257 257 259 263
276 272 267 261 257 257 259 260 262 263 264 267 273 279 282 283 284 285 285 284 282 280 278 274 269 265 263 263 263 263 263 263 266 272 271 267 261 255 255 255 255 257 261
279 274 269 257 251 253 255 259 260 257 258 263 269 275 280 283 284 284 284 284 283 280 277 274 270 267 265 264 263 264 264 265 266 269 271 266 259 253 253 254 254 255 258
281 278 269 258 246 247 250 252 251 252 255 261 266 272 277 281 283 283 281 281 282 282 280 275 272 270 267 265 264 264 266 267 267 269 270 265 258 253 252 254 253 254 257
282 280 265 254 243 243 243 243 245 249 255 260 265 270 275 279 280 280 279 280 281 281 281 279 274 271 269 267 264 263 266 269 268 267 267 262 255 252 252 254 255 255 256
282 280 267 251 241 238 237 238 243 249 255 261 266 270 274 275 276 276 277 277 278 279 280 281 278 275 271 270 268 268 269 270 269 267 264 258 254 251 251 253 255 255 255
275 273 264 251 242 238 236 238 245 251 258 263 267 270 271 271 272 273 274 273 273 275 278 280 281 279 276 273 271 271 272 271 268 266 262 256 255 255 255 255 255 256 254
268 263 253 245 239 237 236 241 249 256 261 265 266 267 267 268 270 271 271 272 272 274 276 279 281 282 279 275 272 270 269 267 266 264 263 259 257 257 258 258 257 255 253
258 253 245 242 239 239 243 250 255 260 262 262 262 263 264 266 268 269 269 270 272 274 276 280 284 285 282 276 272 270 267 265 263 262 264 262 260 259 259 259 259 256 250
249 247 243 243 245 249 254 257 259 258 258 259 261 263 265 266 268 268 268 269 271 274 277 282 286 288 287 281 274 270 268 265 263 261 261 260 260 259 258 258 258 257 251
241 238 240 243 250 256 258 258 258 257 258 261 264 266 268 269 270 270 268 268 269 272 276 280 283 286 289 289 280 273 269 266 264 261 261 260 259 256 257 257 255 253 248
236 236 238 246 254 257 258 259 259 261 263 265 267 269 271 272 271 271 271 271 271 272 273 276 279 281 284 288 287 278 271 267 264 261 261 259 254 252 251 250 249 246 241
236 238 243 250 255 259 261 262 265 268 270 271 272 273 274 274 274 274 273 272 272 271 272 273 274 276 279 281 285 286 276 268 263 259 259 254 245 243 243 244 242 239 234
239 244 250 256 262 267 270 272 274 275 275 275 275 275 276 276 276 275 275 273 272 272 272 272 273 274 275 276 278 280 279 274 271 266 259 249 243 242 242 242 240 236 232
251 256 259 264 269 273 277 278 279 278 278 278 277 277 277 277 276 276 276 275 274 274 274 274 274 274 274 273 274 274 274 272 271 269 265 253 249 244 241 242 241 239 234
266 267 267 269 272 275 277 279 279 279 278 279 279 278 277 276 276 277 277 278 279 279 278 277 278 277 275 273 271 270 270 269 269 268 265 260 258 252 245 244 243 241 238
273 270 270 270 271 272 275 277 277 277 278 279 279 278 278 278 279 280 280 281 281 280 280 280 280 279 277 275 273 270 269 266 264 264 264 258 257 250 241 241 242 241 238
276 274 270 269 268 267 268 270 272 274 276 278 279 279 280 281 282 282 283 282 282 282 281 281 281 280 279 277 275 272 268 266 264 261 260 258 256 252 248 246 241 234 233
280 273 268 266 262 261 262 264 269 273 276 278 280 283 286 287 287 286 286 285 284 284 283 282 280 279 278 277 275 273 270 268 266 263 259 256 254 252 254 254 251 239 231
Height
5906 5905 5904 5903 5903 5902 5901 5901 5900 5900 5899 5898 5897 5896 5894 5892 5890 5888 5886 5884 5883 5882 5882 5881 5880 5880 5880 5879 5879 5878 5878 5877 5877 5876 5876 5876 5876 5876 5875 5875 5875 5874 5874
5900 5900 5899 5898 5898 5897 5896 5896 5895 5895 5894 5893 5892 5891 5890 5888 5886 5884 5883 5881 5879 5878 5877 5877 5876 5875 5875 5875 5875 5874 5873 5873 5873 5872 5872 5871 5872 5871 5871 5871 5870 5870 5870
5894 5893 5893 5892 5892 5891 5891 5890 5890 5890 5889 5888 5887 5886 5885 5883 5881 5880 5878 5877 5875 5874 5872 5871 5871 5870 5870 5870 5870 5870 5869 5868 5868 5868 5867 5867 5867 5867 5866 5866 5866 5866 5866
5887 5886 5886 5886 5885 5885 5884 5884 5884 5884 5883 5882 5881 5881 5879 5877 5876 5874 5873 5871 5870 5868 5867 5866 5865 5865 5864 5864 5865 5865 5864 5864 5863 5863 5863 5862 5862 5862 5862 5861 5861 5861 5861
5879 5877 5877 5877 5877 5877 5877 5877 5877 5877 5877 5875 5874 5874 5873 5871 5869 5868 5866 5865 5863 5862 5861 5859 5858 5858 5858 5858 5858 5859 5859 5859 5858 5857 5857 5857 5857 5857 5857 5856 5855 5855 5855
5869 5868 5868 5868 5867 5868 5869 5869 5869 5869 5869 5868 5866 5866 5865 5863 5862 5860 5858 5857 5856 5855 5854 5852 5851 5850 5850 5851 5851 5852 5852 5853 5852 5852 5851 5851 5851 5851 5851 5850 5849 5849 5849
5858 5857 5857 5856 5856 5857 5858 5860 5860 5860 5860 5859 5858 5858 5857 5855 5854 5852 5850 5849 5848 5847 5846 5844 5843 5843 5843 5843 5843 5844 5845 5846 5846 5845 5844 5843 5844 5844 5845 5844 5844 5843 5843
5845 5843 5843 5843 5843 5844 5846 5848 5849 5850 5851 5850 5850 5849 5849 5849 5846 5844 5842 5840 5839 5838 5837 5837 5836 5835 5835 5835 5836 5836 5837 5837 5838 5837 5837 5836 5836 5837 5838 5838 5837 5837 5837
5832 5830 5829 5828 5829 5831 5834 5836 5838 5840 5841 5841 5840 5840 5840 5840 5838 5836 5833 5831 5830 5829 5828 5828 5828 5827 5827 5827 5828 5828 5828 5828 5829 5829 5828 5828 5827 5829 5830 5831 5831 5830 5831
5817 5814 5811 5811 5815 5818 5821 5825 5827 5829 5831 5832 5831 5830 5830 5830 5829 5828 5825 5822 5821 5819 5819 5819 5818 5818 5818 5818 5819 5819 5819 5819 5820 5820 5819 5819 5819 5820 5822 5823 5824 5824 5824
5805 5800 5795 5796 5799 5804 5809 5813 5817 5819 5821 5822 5822 5822 5821 5820 5819 5818 5817 5815 5812 5810 5809 5809 5809 5809 5809 5809 5809 5809 5810 5810 5810 5811 5810 5810 5811 5812 5813 5815 5816 5816 5817
5793 5790 5788 5788 5790 5794 5798 5803 5807 5810 5811 5812 5812 5812 5812 5812 5811 5810 5809 5807 5805 5802 5801 5800 5800 5800 5800 5799 5799 5799 5799 5800 5800 5800 5800 5801 5801 5803 5804 5806 5807 5808 5809
5785 5783 5783 5783 5784 5786 5789 5793 5797 5800 5802 5803 5803 5803 5803 5802 5802 5801 5800 5799 5797 5796 5793 5792 5791 5791 5791 5790 5789 5789 5789 5789 5789 5790 5790 5790 5791 5792 5794 5796 5797 5799 5800
5775 5775 5776 5776 5777 5778 5780 5784 5788 5790 5792 5793 5794 5794 5794 5793 5793 5792 5792 5791 5790 5789 5786 5784 5782 5782 5782 5781 5780 5779 5779 5778 5778 5779 5779 5779 5780 5782 5783 5785 5787 5789 5790
5765 5766 5766 5768 5768 5769 5772 5776 5779 5781 5783 5784 5784 5785 5785 5784 5784 5784 5783 5783 5782 5781 5779 5776 5774 5773 5772 5771 5770 5769 5768 5768 5768 5768 5769 5769 5770 5771 5773 5774 5775 5778 5779
5755 5757 5758 5759 5760 5762 5764 5768 5770 5772 5774 5774 5775 5776 5776 5776 5775 5775 5775 5774 5773 5772 5770 5768 5766 5764 5762 5760 5759 5758 5757 5757 5758 5758 5759 5760 5760 5761 5763 5764 5765 5767 5769
5746 5748 5749 5751 5753 5755 5758 5760 5761 5763 5764 5765 5766 5767 5767 5767 5767 5766 5766 5765 5764 5763 5762 5760 5758 5755 5753 5751 5749 5748 5747 5747 5747 5748 5749 5750 5750 5751 5752 5754 5756 5758 5760
5738 5740 5741 5744 5746 5749 5751 5752 5753 5755 5756 5757 5757 5758 5758 5758 5758 5757 5757 5756 5755 5754 5753 5752 5750 5747 5745 5742 5740 5738 5737 5737 5737 5738 5738 5739 5740 5741 5742 5745 5747 5748 5750
5730 5732 5734 5737 5740 5742 5743 5745 5746 5747 5748 5748 5749 5749 5749 5749 5748 5748 5747 5747 5746 5745 5744 5743 5741 5740 5738 5736 5733 5731 5729 5728 5728 5727 5728 5728 5729 5731 5733 5735 5737 5740 5742
5723 5726 5728 5731 5733 5735 5737 5738 5739 5739 5740 5740 5740 5740 5740 5739 5739 5739 5738 5737 5736 5736 5735 5734 5733 5731 5730 5729 5728 5725 5723 5721 5720 5720 5719 5720 5721 5722 5725 5727 5730 5732 5734
5718 5720 5723 5725 5727 5728 5729 5730 5731 5732 5732 5733 5732 5732 5731 5731 5730 5730 5729 5729 5728 5727 5726 5725 5724 5723 5722 5722 5722 5720 5718 5715 5714 5713 5713 5713 5714 5716 5717 5719 5722 5724 5726
5713 5715 5717 5719 5720 5721 5723 5723 5724 5725 5725 5725 5725 5724 5723 5723 5722 5721 5721 5720 5719 5718 5717 5716 5715 5714 5714 5713 5713 5713 5712 5710 5709 5708 5707 5707 5707 5708 5710 5712 5714 5717 5719
5708 5710 5712 5713 5714 5715 5716 5717 5718 5718 5718 5718 5717 5716 5715 5715 5714 5713 5712 5711 5710 5709 5708 5707 5706 5705 5704 5704 5704 5704 5704 5703 5702 5701 5701 5701 5701 5702 5703 5705 5707 5710 5713
5703 5704 5706 5707 5708 5709 5710 5710 5711 5711 5710 5710 5710 5709 5708 5707 5706 5705 5704 5702 5701 5700 5699 5698 5697 5695 5695 5694 5694 5695 5695 5695 5694 5694 5694 5695 5695 5695 5697 5699 5700 5703 5705
5697 5698 5699 5700 5701 5702 5703 5704 5704 5704 5704 5703 5703 5702 5701 5700 5699 5698 5696 5695 5694 5692 5690 5689 5687 5686 5685 5685 5684 5685 5685 5685 5686 5686 5687 5688 5688 5689 5690 5692 5693 5695 5698
5692 5693 5693 5694 5695 5696 5697 5698 5698 5698 5698 5698 5697 5696 5695 5694 5693 5691 5689 5688 5685 5683 5681 5679 5678 5677 5676 5675 5674 5674 5674 5675 5675 5676 5677 5679 5680 5682 5683 5685 5686 5688 5690